Date String (YYYY-MM-DD hh:mm:ss) UTC,Instrument flags,Ambient pressure (hPa),Sample flow (lpm),Bypass flow (lpm),Sample temperature (°C),Ambient temperature (°C),ASC tube jacket temperature (°C),LED temperature (°C),Box temperature (°C),Sample RH (%),Span deviation,Mass concentration (μg/m³),Mass concentration (μg/m³),Mass concentration (μg/m³)
DateTimeUTC,F1_M11,P_M11,Q1_M11,Q2_M11,T1_M11,T2_M11,T3_M11,T4_M11,T5_M11,U1_M11,ZSPAN_M11,X0_M11,X2_M11,X1_M11
2021-10-26 12:00:00,,0811.7,4.99,0.00,29.1,28.2,00.0,38.2,30.9,11.9,0000.0,0013.06,0004.49,0003.41
2021-10-26 12:01:00,,0811.6,5.01,0.00,29.1,28.2,00.0,38.2,30.9,11.9,0000.0,0013.22,0004.49,0003.38
2021-10-26 12:02:00,,0811.5,5.00,0.00,29.1,28.2,00.0,38.2,30.9,11.7,0000.0,0012.15,0004.44,0003.33
2021-10-26 12:03:00,,0811.6,4.99,0.00,29.1,28.2,00.0,38.2,30.9,11.5,0000.0,0012.15,0004.43,0003.29
2021-10-26 12:04:00,,0811.6,5.01,0.00,29.1,28.2,00.0,38.2,30.9,11.4,0000.0,0012.25,0004.36,0003.27
2021-10-26 12:05:00,,0811.6,4.99,0.00,29.1,28.2,00.0,38.2,30.9,11.4,0000.0,0012.11,0004.24,0003.23
2021-10-26 12:06:00,,0811.6,5.00,0.00,29.1,28.2,00.0,38.2,30.9,11.5,0000.0,0011.78,0004.19,0003.21
2021-10-26 12:07:00,,0811.6,5.00,0.00,29.1,28.2,00.0,38.2,30.8,11.4,0000.0,0011.54,0004.12,0003.20
2021-10-26 12:08:00,,0811.6,4.99,0.00,29.1,28.2,00.0,38.2,30.8,11.1,0000.0,0011.20,0004.06,0003.18
2021-10-26 12:09:00,,0811.5,5.01,0.00,29.1,28.2,00.0,38.2,30.8,10.7,0000.0,0009.99,0003.96,0003.16
2021-10-26 12:10:00,,0811.6,4.99,0.00,29.1,28.2,00.0,38.2,30.8,10.7,0000.0,0009.26,0003.89,0003.13
2021-10-26 12:11:00,,0811.5,5.00,0.00,29.1,28.2,00.0,38.2,30.8,10.7,0000.0,0008.78,0003.82,0003.08
2021-10-26 12:12:00,,0811.6,4.98,0.00,29.1,28.2,00.0,38.2,30.8,10.8,0000.0,0008.29,0003.76,0003.03
2021-10-26 12:13:00,,0811.6,5.00,0.00,29.1,28.2,00.0,38.2,30.8,10.8,0000.0,0008.03,0003.69,0002.99
2021-10-26 12:14:00,,0811.6,5.01,0.00,29.1,28.2,00.0,38.2,30.8,11.0,0000.0,0007.94,0003.65,0002.97
2021-10-26 12:15:00,,0811.6,4.99,0.00,29.1,28.2,00.0,38.2,30.8,10.8,0000.0,0007.65,0003.65,0002.95
2021-10-26 12:16:00,,0811.6,4.99,0.00,29.1,28.2,00.0,38.2,30.8,10.8,0000.0,0007.77,0003.62,0002.90
2021-10-26 12:17:00,,0811.5,5.00,0.00,29.1,28.2,00.0,38.2,30.8,10.8,0000.0,0007.35,0003.55,0002.84
2021-10-26 12:18:00,,0811.5,5.00,0.00,29.1,28.2,00.0,38.2,30.8,10.9,0000.0,0007.15,0003.52,0002.79
2021-10-26 12:19:00,,0811.5,5.01,0.00,29.1,28.2,00.0,38.2,30.9,11.1,0000.0,0007.80,0003.50,0002.77
2021-10-26 12:20:00,,0811.6,4.99,0.00,29.1,28.2,00.0,38.2,30.8,11.7,0000.0,0008.04,0003.52,0002.77
2021-10-26 12:21:00,,0811.5,5.00,0.00,29.1,28.2,00.0,38.2,30.8,11.8,0000.0,0008.71,0003.58,0002.83
2021-10-26 12:22:00,,0811.5,5.01,0.00,29.1,28.2,00.0,38.2,30.8,11.7,0000.0,0009.46,0003.64,0002.92
2021-10-26 12:23:00,,0811.5,5.00,0.00,29.1,28.2,00.0,38.2,30.9,11.8,0000.0,0010.24,0003.69,0002.99
2021-10-26 12:24:00,,0811.5,4.99,0.00,29.1,28.2,00.0,38.2,30.9,12.0,0000.0,0010.94,0003.75,0003.06
2021-10-26 12:25:00,,0811.5,5.02,0.00,29.1,28.2,00.0,38.2,30.8,12.0,0000.0,0011.75,0003.82,0003.11
2021-10-26 12:26:00,,0811.5,4.99,0.00,29.1,28.2,00.0,38.2,30.8,12.0,0000.0,0012.35,0003.89,0003.14
2021-10-26 12:27:00,,0811.5,4.99,0.00,29.1,28.2,00.0,38.2,30.8,11.8,0000.0,0012.57,0003.95,0003.17
2021-10-26 12:28:00,,0811.4,5.00,0.00,29.1,28.2,00.0,38.2,30.8,11.6,0000.0,0012.78,0004.01,0003.20
2021-10-26 12:29:00,,0811.3,5.00,0.00,29.1,28.1,00.0,38.2,30.8,11.6,0000.0,0013.06,0004.08,0003.24
2021-10-26 12:30:00,,0811.3,5.01,0.00,29.1,28.1,00.0,38.2,30.8,11.5,0000.0,0013.33,0004.12,0003.25
2021-10-26 12:31:00,,0811.3,4.99,0.00,29.1,28.1,00.0,38.2,30.8,11.6,0000.0,0013.18,0004.13,0003.26
2021-10-26 12:32:00,,0811.2,5.00,0.00,29.1,28.1,00.0,38.2,30.8,11.7,0000.0,0012.88,0004.16,0003.27
2021-10-26 12:33:00,,0811.2,5.01,0.00,29.1,28.2,00.0,38.2,30.8,11.8,0000.0,0012.35,0004.16,0003.26
2021-10-26 12:34:00,,0811.2,5.00,0.00,29.1,28.1,00.0,38.2,30.8,11.8,0000.0,0011.97,0004.18,0003.27
2021-10-26 12:35:00,,0811.2,4.99,0.00,29.1,28.1,00.0,38.2,30.8,11.8,0000.0,0011.53,0004.19,0003.27
2021-10-26 12:36:00,,0811.2,5.00,0.00,29.1,28.1,00.0,38.2,30.8,11.8,0000.0,0010.96,0004.17,0003.26
2021-10-26 12:37:00,,0811.2,5.00,0.00,29.1,28.1,00.0,38.2,30.8,11.8,0000.0,0010.63,0004.14,0003.26
2021-10-26 12:38:00,,0811.2,5.00,0.00,29.1,28.1,00.0,38.2,30.8,12.0,0000.0,0010.40,0004.20,0003.26
2021-10-26 12:39:00,,0811.2,4.99,0.00,29.1,28.1,00.0,38.2,30.8,12.1,0000.0,0010.80,0004.26,0003.28
2021-10-26 12:40:00,,0811.2,5.00,0.00,29.1,28.1,00.0,38.2,30.8,12.1,0000.0,0010.81,0004.27,0003.31
2021-10-26 12:41:00,,0811.2,4.99,0.00,29.1,28.1,00.0,38.2,30.8,12.1,0000.0,0010.72,0004.34,0003.35
2021-10-26 12:42:00,,0811.2,5.00,0.00,29.1,28.1,00.0,38.2,30.8,12.1,0000.0,0010.99,0004.43,0003.38
2021-10-26 12:43:00,,0811.2,5.00,0.00,29.1,28.1,00.0,38.2,30.8,12.1,0000.0,0011.49,0004.50,0003.40
2021-10-26 12:44:00,,0811.1,4.99,0.00,29.1,28.1,00.0,38.2,30.8,12.1,0000.0,0013.39,0004.57,0003.43
2021-10-26 12:45:00,,0811.0,5.00,0.00,29.1,28.1,00.0,38.2,30.8,12.4,0000.0,0013.60,0004.65,0003.47
2021-10-26 12:46:00,,0811.0,5.00,0.00,29.1,28.1,00.0,38.2,30.8,12.6,0000.0,0013.99,0004.73,0003.52
2021-10-26 12:47:00,,0811.1,5.00,0.00,29.1,28.1,00.0,38.2,30.8,12.7,0000.0,0015.39,0004.87,0003.59
2021-10-26 12:48:00,,0811.0,5.00,0.00,29.1,28.1,00.0,38.2,30.8,12.7,0000.0,0016.14,0004.99,0003.66
2021-10-26 12:49:00,,0811.0,5.00,0.00,29.1,28.1,00.0,38.2,30.8,12.5,0000.0,0016.18,0005.00,0003.69
2021-10-26 12:50:00,,0811.1,5.01,0.00,29.1,28.1,00.0,38.2,30.8,12.2,0000.0,0016.35,0005.02,0003.70
2021-10-26 12:51:00,,0811.0,5.01,0.00,29.0,28.1,00.0,38.2,30.8,12.1,0000.0,0016.43,0005.01,0003.71
2021-10-26 12:52:00,,0811.0,4.98,0.00,29.0,28.1,00.0,38.2,30.8,12.1,0000.0,0016.36,0005.00,0003.71
2021-10-26 12:53:00,,0811.0,4.99,0.00,29.0,28.1,00.0,38.2,30.8,12.2,0000.0,0016.71,0004.97,0003.70
2021-10-26 12:54:00,,0811.0,5.01,0.00,29.0,28.1,00.0,38.2,30.8,12.3,0000.0,0016.71,0004.93,0003.70
2021-10-26 12:55:00,,0811.0,4.99,0.00,29.0,28.1,00.0,38.2,30.8,12.3,0000.0,0015.33,0004.93,0003.70
2021-10-26 12:56:00,,0811.0,5.00,0.00,29.0,28.1,00.0,38.2,30.8,12.3,0000.0,0015.56,0004.91,0003.70
2021-10-26 12:57:00,,0811.0,5.00,0.00,29.0,28.1,00.0,38.2,30.8,12.3,0000.0,0016.65,0004.89,0003.67
2021-10-26 12:58:00,,0811.0,5.00,0.00,29.0,28.1,00.0,38.2,30.8,12.3,0000.0,0016.54,0004.85,0003.64
2021-10-26 12:59:00,,0811.0,5.00,0.00,29.0,28.1,00.0,38.2,30.8,12.3,0000.0,0016.06,0004.79,0003.61
